TimeCDT,TemperatureF,Dew PointF,Humidity,Sea Level PressureIn,VisibilityMPH,Wind Direction,Wind SpeedMPH,Gust SpeedMPH,PrecipitationIn,Events,Conditions,WindDirDegrees,DateUTC
12:14 AM,8.6,1.4,73,29.84,10.0,NW,15.0,-,N/A,,Clear,310,2013-03-19 05:14:00
12:34 AM,6.8,1.4,79,29.85,10.0,NW,15.0,-,N/A,,Clear,310,2013-03-19 05:34:00
12:54 AM,6.8,-0.4,72,29.85,10.0,NW,12.7,-,N/A,,Clear,310,2013-03-19 05:54:00
1:14 AM,5.0,-0.4,78,29.85,10.0,WNW,10.4,-,N/A,,Clear,300,2013-03-19 06:14:00
1:34 AM,5.0,-2.2,72,29.86,10.0,WNW,10.4,-,N/A,,Clear,300,2013-03-19 06:34:00
1:54 AM,3.2,-2.2,78,29.86,10.0,WNW,11.5,-,N/A,,Clear,300,2013-03-19 06:54:00
2:14 AM,3.2,-2.2,78,29.87,10.0,WNW,11.5,-,N/A,,Clear,300,2013-03-19 07:14:00
2:34 AM,3.2,-4.0,72,29.87,10.0,WNW,11.5,-,N/A,,Clear,300,2013-03-19 07:34:00
2:54 AM,1.4,-5.8,72,29.88,10.0,WNW,10.4,-,N/A,,Clear,300,2013-03-19 07:54:00
3:14 AM,1.4,-5.8,72,29.88,10.0,WNW,10.4,-,N/A,,Clear,300,2013-03-19 08:14:00
3:34 AM,1.4,-5.8,72,29.89,10.0,WNW,11.5,-,N/A,,Clear,290,2013-03-19 08:34:00
3:54 AM,1.4,-5.8,72,29.89,10.0,WNW,11.5,-,N/A,,Clear,300,2013-03-19 08:54:00
4:14 AM,1.4,-5.8,72,29.90,10.0,WNW,11.5,-,N/A,,Clear,290,2013-03-19 09:14:00
4:34 AM,1.4,-5.8,72,29.91,10.0,WNW,10.4,-,N/A,,Clear,300,2013-03-19 09:34:00
4:54 AM,1.4,-5.8,72,29.92,10.0,WNW,11.5,-,N/A,,Clear,300,2013-03-19 09:54:00
5:14 AM,-0.4,-7.6,72,29.92,10.0,WNW,10.4,-,N/A,,Clear,290,2013-03-19 10:14:00
5:34 AM,-0.4,-7.6,72,29.93,10.0,WNW,9.2,-,N/A,,Clear,290,2013-03-19 10:34:00
5:54 AM,-2.2,-7.6,78,29.94,10.0,West,10.4,-,N/A,,Clear,280,2013-03-19 10:54:00
6:15 AM,-2.2,-9.4,71,29.95,10.0,WNW,9.2,-,N/A,,Clear,290,2013-03-19 11:15:00
6:34 AM,-2.2,-9.4,71,29.95,10.0,West,9.2,-,N/A,,Clear,280,2013-03-19 11:34:00
6:54 AM,-2.2,-9.4,71,29.96,10.0,West,10.4,-,N/A,,Clear,280,2013-03-19 11:54:00
7:14 AM,-4.0,-11.2,71,29.97,10.0,West,11.5,-,N/A,,Clear,280,2013-03-19 12:14:00
7:34 AM,-5.8,-11.2,77,29.98,10.0,West,11.5,-,N/A,,Clear,280,2013-03-19 12:34:00
7:54 AM,-5.8,-11.2,77,29.99,10.0,West,11.5,-,N/A,,Clear,280,2013-03-19 12:54:00
8:14 AM,-5.8,-11.2,77,30.00,10.0,West,13.8,18.4,N/A,,Clear,280,2013-03-19 13:14:00
8:35 AM,-4.0,-11.2,71,30.01,10.0,West,10.4,18.4,N/A,,Clear,280,2013-03-19 13:35:00
8:54 AM,-4.0,-9.4,78,30.02,10.0,West,10.4,-,N/A,,Clear,280,2013-03-19 13:54:00
9:14 AM,-2.2,-9.4,71,30.03,10.0,West,12.7,-,N/A,,Clear,280,2013-03-19 14:14:00
9:35 AM,-2.2,-9.4,71,30.03,10.0,West,10.4,-,N/A,,Clear,280,2013-03-19 14:35:00
9:54 AM,-2.2,-9.4,71,30.04,10.0,West,11.5,-,N/A,,Clear,270,2013-03-19 14:54:00
10:14 AM,-0.4,-7.6,72,30.05,10.0,West,11.5,-,N/A,,Clear,270,2013-03-19 15:14:00
10:35 AM,1.4,-7.6,66,30.05,10.0,West,12.7,-,N/A,,Clear,270,2013-03-19 15:35:00
10:54 AM,1.4,-5.8,72,30.05,10.0,West,13.8,-,N/A,,Clear,270,2013-03-19 15:54:00
11:14 AM,3.2,-4.0,72,30.06,7.0,West,12.7,-,N/A,,Clear,270,2013-03-19 16:14:00
11:35 AM,6.8,-2.2,67,30.06,7.0,West,15.0,-,N/A,,Clear,270,2013-03-19 16:35:00
11:54 AM,8.6,-0.4,67,30.06,10.0,West,13.8,20.7,N/A,,Clear,270,2013-03-19 16:54:00
12:14 PM,8.6,1.4,73,30.06,10.0,West,15.0,19.6,N/A,,Clear,280,2013-03-19 17:14:00
12:35 PM,10.4,1.4,67,30.06,10.0,West,13.8,19.6,N/A,,Clear,280,2013-03-19 17:35:00
12:54 PM,12.2,1.4,62,30.06,7.0,West,13.8,19.6,N/A,,Clear,280,2013-03-19 17:54:00
1:14 PM,12.2,1.4,62,30.06,3.0,WNW,12.7,19.6,N/A,,Haze,290,2013-03-19 18:14:00
1:34 PM,12.2,3.2,67,30.06,7.0,West,12.7,20.7,N/A,,Clear,280,2013-03-19 18:34:00
1:54 PM,14.0,1.4,57,30.06,5.0,WNW,15.0,21.9,N/A,,Haze,300,2013-03-19 18:54:00
2:15 PM,14.0,1.4,57,30.07,5.0,WNW,15.0,24.2,N/A,,Haze,300,2013-03-19 19:15:00
2:34 PM,14.0,1.4,57,30.07,3.0,WNW,16.1,-,N/A,,Haze,300,2013-03-19 19:34:00
2:54 PM,14.0,1.4,57,30.07,2.5,WNW,18.4,21.9,N/A,,Haze,300,2013-03-19 19:54:00
3:15 PM,14.0,1.4,57,30.07,3.0,WNW,16.1,-,N/A,,Haze,300,2013-03-19 20:15:00
3:34 PM,14.0,1.4,57,30.08,7.0,WNW,17.3,-,N/A,,Clear,300,2013-03-19 20:34:00
3:54 PM,14.0,1.4,57,30.09,5.0,WNW,19.6,-,N/A,,Haze,300,2013-03-19 20:54:00
4:15 PM,12.2,1.4,62,30.09,5.0,WNW,19.6,25.3,N/A,,Haze,300,2013-03-19 21:15:00
4:34 PM,12.2,1.4,62,30.10,5.0,WNW,19.6,24.2,N/A,,Haze,300,2013-03-19 21:34:00
4:54 PM,12.2,1.4,62,30.11,5.0,WNW,17.3,24.2,N/A,,Haze,300,2013-03-19 21:54:00
5:15 PM,12.2,1.4,62,30.12,7.0,WNW,18.4,21.9,N/A,,Clear,300,2013-03-19 22:15:00
5:34 PM,12.2,1.4,62,30.14,7.0,WNW,18.4,-,N/A,,Clear,300,2013-03-19 22:34:00
5:54 PM,12.2,1.4,62,30.14,7.0,WNW,17.3,-,N/A,,Clear,300,2013-03-19 22:54:00
6:14 PM,12.2,1.4,62,30.15,10.0,WNW,12.7,-,N/A,,Clear,300,2013-03-19 23:14:00
6:34 PM,12.2,-0.4,57,30.16,10.0,WNW,13.8,19.6,N/A,,Clear,300,2013-03-19 23:34:00
6:55 PM,10.4,-0.4,62,30.16,10.0,WNW,12.7,18.4,N/A,,Clear,290,2013-03-19 23:55:00
7:14 PM,10.4,-0.4,62,30.17,10.0,WNW,11.5,-,N/A,,Clear,290,2013-03-20 00:14:00
7:35 PM,8.6,-2.2,62,30.17,10.0,WNW,10.4,-,N/A,,Clear,290,2013-03-20 00:35:00
7:54 PM,8.6,-2.2,62,30.17,10.0,WNW,11.5,-,N/A,,Clear,290,2013-03-20 00:54:00
8:14 PM,8.6,-2.2,62,30.17,10.0,WNW,11.5,-,N/A,,Clear,290,2013-03-20 01:14:00
8:35 PM,6.8,-4.0,61,30.18,10.0,WNW,9.2,17.3,N/A,,Clear,290,2013-03-20 01:35:00
8:54 PM,6.8,-4.0,61,30.18,10.0,WNW,9.2,-,N/A,,Clear,300,2013-03-20 01:54:00
9:14 PM,6.8,-4.0,61,30.18,10.0,WNW,9.2,-,N/A,,Clear,290,2013-03-20 02:14:00
9:34 PM,6.8,-4.0,61,30.18,10.0,WNW,10.4,-,N/A,,Clear,290,2013-03-20 02:34:00
9:54 PM,5.0,-4.0,66,30.18,10.0,WNW,9.2,-,N/A,,Clear,290,2013-03-20 02:54:00
10:14 PM,5.0,-5.8,61,30.18,10.0,WNW,8.1,-,N/A,,Clear,290,2013-03-20 03:14:00
10:34 PM,5.0,-5.8,61,30.19,10.0,WNW,9.2,-,N/A,,Clear,300,2013-03-20 03:34:00
10:54 PM,5.0,-5.8,61,-9999,10.0,WNW,9.2,-,N/A,,Clear,300,2013-03-20 03:54:00
11:14 PM,5.0,-5.8,61,30.19,10.0,WNW,9.2,-,N/A,,Clear,300,2013-03-20 04:14:00
11:34 PM,3.2,-5.8,66,30.19,10.0,WNW,9.2,-,N/A,,Clear,300,2013-03-20 04:34:00
11:54 PM,3.2,-7.6,61,30.20,10.0,WNW,9.2,-,N/A,,Clear,300,2013-03-20 04:54:00